VA3NNW-13 Weather Reports


Display with metric or nautical units.
time (UTC)temp
F
wind
direction
speed
MPH
gust
MPH
rain 1hr
in
rain 24hr
in
rain mn
in
humidity
%
barometer
mb
20190818110302 65 113 12.0 16.0 0.00 9.07 0.00 97
20190818110202 65 180 11.0 16.0 0.00 9.07 0.00 97
20190818110003 65 158 10.0 16.0 0.00 9.07 0.00 97
20190818105902 65 180 10.0 16.0 0.00 9.07 0.00 97
20190818105702 65 180 10.0 16.0 0.00 9.07 0.00 97
20190818105602 65 203 9.0 16.0 0.00 9.07 0.00 97
20190818105402 65 180 10.0 16.0 0.00 9.07 0.00 97
20190818105306 65 180 10.0 16.0 0.00 9.07 0.00 97
20190818105102 65 180 9.0 13.0 0.00 9.07 0.00 97
20190818105002 66 158 9.0 14.0 0.00 9.07 0.00 97
20190818104802 66 203 10.0 14.0 0.00 9.07 0.00 97
20190818104702 66 180 9.0 14.0 0.00 9.07 0.00 97
20190818104502 66 180 8.0 14.0 0.00 9.07 0.00 97
20190818104403 66 68 7.0 14.0 0.00 9.07 0.00 97
20190818104202 66 180 5.0 14.0 0.00 9.07 0.00 97
20190818104102 66 135 4.0 9.0 0.00 9.07 0.00 97
20190818103902 66 180 4.0 9.0 0.00 9.07 0.00 97
20190818103802 66 203 4.0 9.0 0.00 9.07 0.00 97
20190818103602 66 135 4.0 8.0 0.00 9.07 0.00 97
20190818103502 66 180 5.0 8.0 0.00 9.07 0.00 97
20190818103302 66 180 6.0 8.0 0.00 9.07 0.00 97
20190818103203 66 180 6.0 8.0 0.00 9.07 0.00 97
20190818103002 66 203 6.0 8.0 0.00 9.07 0.00 97
20190818102902 66 180 6.0 9.0 0.00 9.07 0.00 97
20190818102702 65 180 6.0 9.0 0.00 9.07 0.00 97
20190818102602 65 180 6.0 9.0 0.00 9.07 0.00 97
20190818102403 65 158 6.0 9.0 0.00 9.07 0.00 97
20190818102305 65 113 6.0 9.0 0.00 9.07 0.00 97
20190818102103 65 180 6.0 9.0 0.00 9.07 0.00 97
20190818102003 65 180 6.0 9.0 0.00 9.07 0.00 97
20190818101802 65 180 6.0 9.0 0.00 9.07 0.00 97
20190818101702 65 203 5.0 7.0 0.00 9.07 0.00 97
20190818101502 65 113 5.0 8.0 0.00 9.07 0.00 97
20190818101402 65 113 6.0 8.0 0.00 9.07 0.00 97
20190818101202 65 180 6.0 8.0 0.00 9.07 0.00 97
20190818101102 65 180 6.0 9.0 0.00 9.07 0.00 97
20190818100902 65 203 6.0 9.0 0.00 9.07 0.00 97
20190818100802 65 248 7.0 9.0 0.00 9.07 0.00 97
20190818100602 65 203 6.0 9.0 0.00 9.07 0.00 97
20190818100502 65 158 6.0 9.0 0.00 9.07 0.00 97
20190818100303 65 180 6.0 9.0 0.00 9.07 0.00 97
20190818100202 65 180 6.0 8.0 0.00 9.07 0.00 97
20190818100002 65 180 6.0 8.0 0.00 9.07 0.00 97
20190818095902 65 180 6.0 8.0 0.00 9.07 0.00 97
20190818095702 65 180 6.0 8.0 0.00 9.07 0.00 97
20190818095602 65 180 5.0 8.0 0.00 9.07 0.00 97
20190818095402 65 180 6.0 9.0 0.00 9.07 0.00 97
20190818095302 65 203 6.0 9.0 0.00 9.07 0.00 97
20190818095102 65 225 7.0 10.0 0.00 9.07 0.00 97
20190818095002 65 113 7.0 10.0 0.00 9.07 0.00 97
20190818094804 65 203 7.0 10.0 0.00 9.07 0.00 97
20190818094702 66 180 7.0 10.0 0.00 9.07 0.00 97
20190818094502 66 180 7.0 10.0 0.00 9.07 0.00 97
20190818094402 66 180 7.0 9.0 0.00 9.07 0.00 97
20190818094202 66 135 6.0 9.0 0.00 9.07 0.00 96
20190818094102 66 158 5.0 9.0 0.00 9.07 0.00 96
20190818093902 66 248 4.0 9.0 0.00 9.07 0.00 96
20190818093802 66 180 3.0 7.0 0.00 9.07 0.00 96
20190818093602 66 180 2.0 5.0 0.00 9.07 0.00 96
20190818093502 66 180 1.0 4.0 0.00 9.07 0.00 96
20190818093302 66 180 1.0 4.0 0.00 9.07 0.00 96
20190818093203 66 45 2.0 8.0 0.00 9.07 0.00 96
20190818093002 66 248 3.0 8.0 0.00 9.07 0.00 96
20190818092902 66 270 3.0 8.0 0.00 9.07 0.00 96
20190818092702 66 293 3.0 8.0 0.00 9.07 0.00 96
20190818092602 66 203 2.0 8.0 0.00 9.07 0.00 96
20190818092402 66 203 1.0 5.0 0.00 9.07 0.00 96
20190818092302 66 225 1.0 4.0 0.00 9.07 0.00 96
20190818092102 66 248 1.0 3.0 0.00 9.07 0.00 96
20190818092002 66 270 1.0 3.0 0.00 9.07 0.00 96
20190818091803 66 180 1.0 3.0 0.00 9.07 0.00 96
20190818091702 66 180 1.0 3.0 0.00 9.07 0.00 96
20190818091502 66 113 0.0 2.0 0.00 9.06 0.00 96
20190818091402 66 113 0.0 0.0 0.00 9.06 0.00 96
20190818091202 66 158 0.0 0.0 0.00 9.06 0.00 96
20190818091102 66 158 0.0 0.0 0.00 9.06 0.00 96
20190818090902 66 203 0.0 2.0 0.00 9.06 0.00 96
20190818090802 66 113 0.0 2.0 0.00 9.06 0.00 96
20190818090602 66 315 0.0 2.0 0.00 9.06 0.00 96
20190818090502 66 315 0.0 2.0 0.00 9.06 0.00 96
20190818090302 66 270 0.0 2.0 0.00 9.06 0.00 96
20190818090202 66 225 0.0 2.0 0.00 9.06 0.00 96
20190818090002 66 135 1.0 4.0 0.00 9.05 0.00 96
20190818085910 66 135 1.0 4.0 0.00 9.05 0.00 96
20190818085702 66 270 2.0 5.0 0.00 9.04 0.00 96
20190818085602 66 270 2.0 7.0 0.00 9.04 0.00 96
20190818085402 66 270 3.0 7.0 0.00 9.04 0.00 96
20190818085305 66 293 4.0 7.0 0.00 9.04 0.00 96
20190818085102 66 270 4.0 7.0 0.00 9.03 0.00 96
20190818085002 66 68 4.0 7.0 0.00 9.02 0.00 96
20190818084802 66 158 3.0 6.0 0.00 9.01 0.00 96
20190818084702 66 158 2.0 6.0 0.00 9.01 0.00 96
20190818084502 66 158 2.0 10.0 0.00 9.00 0.00 95
20190818084402 66 180 3.0 10.0 0.00 8.99 0.00 95
20190818083302 67 23 10.0 18.0 0.00 8.75 0.00 95
20190818083202 67 180 10.0 18.0 0.00 8.75 0.00 95
20190818083002 67 135 10.0 18.0 0.00 8.74 0.00 95
20190818082902 67 180 9.0 15.0 0.00 8.73 0.00 95
20190818082702 67 203 9.0 15.0 0.00 8.72 0.00 95
20190818082602 67 158 9.0 15.0 0.00 8.71 0.00 95
20190818082402 67 158 9.0 15.0 0.00 8.71 0.00 94
20190818082303 67 225 9.0 15.0 0.00 8.71 0.00 94
20190818082102 67 158 9.0 13.0 0.00 8.69 0.00 93
20190818082002 67 203 9.0 13.0 0.00 8.69 0.00 93
20190818081802 67 203 10.0 13.0 0.00 8.69 0.00 93
20190818081702 67 180 10.0 13.0 0.00 8.69 0.00 93
20190818081502 67 113 10.0 13.0 0.00 8.69 0.00 92
20190818081402 67 203 10.0 13.0 0.00 8.69 0.00 92
20190818081202 67 203 9.0 13.0 0.00 8.69 0.00 92
20190818081104 67 248 8.0 13.0 0.00 8.69 0.00 92
20190818080902 67 180 7.0 11.0 0.00 8.69 0.00 91
20190818080802 67 180 6.0 11.0 0.00 8.69 0.00 91
20190818080602 67 180 5.0 8.0 0.00 8.69 0.00 91
20190818080502 67 135 5.0 10.0 0.00 8.69 0.00 91
20190818080302 67 180 5.0 10.0 0.00 8.69 0.00 90
20190818080202 67 203 6.0 12.0 0.00 8.69 0.00 90
20190818080003 67 158 7.0 13.0 0.00 8.69 0.00 90
20190818075902 67 180 7.0 13.0 0.00 8.69 0.00 90
20190818075702 67 180 8.0 13.0 0.00 8.69 0.00 90
20190818075602 67 180 9.0 15.0 0.00 8.69 0.00 90
20190818075402 67 180 9.0 15.0 0.00 8.69 0.00 90
20190818075302 67 158 9.0 15.0 0.00 8.69 0.00 90
20190818075102 67 248 9.0 15.0 0.00 8.69 0.00 90
20190818075003 67 113 10.0 15.0 0.00 8.69 0.00 90
20190818074802 67 203 10.0 18.0 0.00 8.69 0.00 90
20190818074702 67 113 11.0 18.0 0.00 8.69 0.00 90
20190818074503 67 180 10.0 18.0 0.00 8.69 0.00 89
20190818074402 67 158 10.0 18.0 0.00 8.69 0.00 89
20190818074202 67 135 10.0 18.0 0.00 8.69 0.00 89
20190818074102 68 135 9.0 18.0 0.00 8.69 0.00 88
20190818073902 68 180 8.0 14.0 0.00 8.69 0.00 87
20190818073805 68 45 8.0 14.0 0.00 8.69 0.00 87
20190818073602 68 203 7.0 13.0 0.00 8.69 0.00 87
20190818073502 68 180 7.0 13.0 0.00 8.69 0.00 87
20190818073302 68 180 7.0 9.0 0.00 8.69 0.00 87
20190818073202 68 158 7.0 9.0 0.00 8.69 0.00 87
20190818073003 67 135 6.0 9.0 0.00 8.69 0.00 87
20190818072902 67 158 6.0 9.0 0.00 8.69 0.00 87
20190818072702 67 158 5.0 9.0 0.00 8.69 0.00 87
20190818072602 67 113 4.0 9.0 0.00 8.69 0.00 88
20190818072403 67 158 2.0 5.0 0.00 8.69 0.00 88
20190818072302 67 135 2.0 5.0 0.00 8.69 0.00 88
20190818072102 67 135 1.0 4.0 0.00 8.69 0.00 88
20190818072002 67 135 0.0 3.0 0.00 8.69 0.00 88
20190818071802 67 158 0.0 0.0 0.00 8.69 0.00 88
20190818071702 67 180 0.0 2.0 0.00 8.69 0.00 88
20190818071503 67 225 0.0 2.0 0.00 8.69 0.00 88
20190818071402 67 180 0.0 2.0 0.00 8.69 0.00 88
20190818071202 67 270 0.0 2.0 0.00 8.69 0.00 88
20190818071102 67 225 0.0 2.0 0.00 8.69 0.00 88
20190818070902 66 338 0.0 0.0 0.00 8.69 0.00 88
20190818070803 66 225 0.0 0.0 0.00 8.69 0.00 88
20190818070602 66 203 0.0 0.0 0.00 8.69 0.00 88
20190818070502 66 135 0.0 0.0 0.00 8.69 0.00 88
20190818070302 66 135 0.0 0.0 0.00 8.69 0.00 88
20190818070202 66 113 0.0 0.0 0.00 8.69 0.00 88
20190818070003 66 113 0.0 2.0 0.00 8.69 0.00 88
20190818065902 66 113 0.0 2.0 0.00 8.69 0.00 88
20190818065702 66 270 0.0 2.0 0.00 8.69 0.00 88
20190818065602 66 270 0.0 2.0 0.00 8.69 0.00 88
20190818065402 66 270 0.0 2.0 0.00 8.69 0.00 88
20190818065302 66 113 0.0 0.0 0.00 8.69 0.00 88
20190818065102 66 113 0.0 0.0 0.00 8.69 0.00 88
20190818065003 66 113 0.0 0.0 0.00 8.69 0.00 88
20190818064802 66 135 0.0 0.0 0.00 8.69 0.00 88
20190818064702 66 158 0.0 0.0 0.00 8.69 0.00 88
20190818064505 66 248 0.0 0.0 0.00 8.69 0.00 88
20190818064403 66 248 0.0 0.0 0.00 8.69 0.00 88
20190818064202 66 270 0.0 0.0 0.00 8.69 0.00 88
20190818064102 66 270 0.0 0.0 0.00 8.69 0.00 88
20190818063902 66 293 0.0 0.0 0.00 8.69 0.00 88
20190818063802 66 68 0.0 0.0 0.00 8.69 0.00 88
20190818063603 66 180 0.0 0.0 0.00 8.69 0.00 88
20190818063502 66 338 0.0 0.0 0.00 8.69 0.00 88
20190818063302 66 23 0.0 0.0 0.00 8.69 0.00 88
20190818063202 66 23 0.0 0.0 0.00 8.69 0.00 88
20190818063002 66 68 0.0 0.0 0.00 8.69 0.00 88
20190818062902 66 338 0.0 0.0 0.00 8.69 0.00 88
20190818062702 66 315 0.0 0.0 0.00 8.69 0.00 88
20190818062602 66 0 0.0 0.0 0.00 8.69 0.00 88
20190818062402 66 23 0.0 0.0 0.00 8.69 0.00 88
20190818062304 66 68 0.0 0.0 0.00 8.69 0.00 88
20190818062102 66 23 0.0 0.0 0.00 8.69 0.00 87
20190818062002 66 23 0.0 0.0 0.00 8.69 0.00 87
20190818061802 66 23 0.0 0.0 0.00 8.69 0.00 87
20190818061702 66 45 0.0 0.0 0.00 8.69 0.00 87
20190818061502 66 270 0.0 0.0 0.00 8.69 0.00 87
20190818061403 66 270 0.0 0.0 0.00 8.69 0.00 87
20190818061202 66 45 0.0 0.0 0.00 8.69 0.00 87
20190818061102 66 90 0.0 0.0 0.00 8.69 0.00 86
20190818060902 66 270 0.0 0.0 0.00 8.69 0.00 86
20190818060802 66 270 0.0 0.0 0.00 8.69 0.00 86
20190818060602 66 293 0.0 2.0 0.00 8.69 0.00 86
20190818060502 67 293 0.0 2.0 0.00 8.69 0.00 86
20190818060302 67 293 0.0 2.0 0.00 8.69 0.00 86
20190818060203 67 315 0.0 2.0 0.00 8.69 0.00 86
20190818060002 67 293 1.0 3.0 0.00 8.69 0.00 86
20190818055902 67 315 0.0 3.0 0.00 8.69 0.00 86
20190818055702 67 338 1.0 3.0 0.00 8.69 0.00 86
20190818055602 67 338 1.0 3.0 0.00 8.69 0.00 86
20190818055402 67 293 2.0 4.0 0.00 8.69 0.00 86
20190818055302 67 68 2.0 4.0 0.00 8.69 0.00 86
20190818055102 67 23 2.0 4.0 0.00 8.69 0.00 86
20190818055002 67 293 2.0 4.0 0.00 8.69 0.00 86
20190818054802 67 293 2.0 4.0 0.00 8.69 0.00 86
20190818054702 67 315 1.0 4.0 0.00 8.69 0.00 86
20190818054502 67 293 1.0 4.0 0.00 8.69 0.00 85
20190818054402 67 315 1.0 4.0 0.00 8.69 0.00 85
20190818054202 67 113 1.0 4.0 0.00 8.69 0.00 85
20190818054102 67 23 1.0 4.0 0.00 8.69 0.00 85
20190818053902 67 23 0.0 0.0 0.00 8.69 0.00 85
20190818053802 67 0 0.0 0.0 0.00 8.69 0.00 85
20190818053602 67 293 0.0 0.0 0.00 8.69 0.00 85
20190818053502 67 23 0.0 0.0 0.00 8.69 0.00 84
20190818053302 67 225 0.0 0.0 0.00 8.69 0.00 84
20190818053202 67 225 0.0 0.0 0.00 8.69 0.00 84
20190818053002 67 270 0.0 0.0 0.00 8.69 0.00 84
20190818052905 67 270 0.0 0.0 0.00 8.69 0.00 84
20190818052702 67 270 0.0 0.0 0.00 8.69 0.00 84
20190818052603 67 270 0.0 0.0 0.00 8.69 0.00 84
20190818052402 67 270 0.0 0.0 0.00 8.69 0.00 84
20190818052302 67 270 0.0 0.0 0.00 8.69 0.00 84
20190818052102 67 225 0.0 0.0 0.00 8.69 0.00 84
20190818052002 67 248 0.0 0.0 0.00 8.69 0.00 84
20190818051802 67 180 0.0 0.0 0.00 8.69 0.00 84
20190818051702 67 180 0.0 0.0 0.00 8.69 0.00 84
20190818051502 67 270 0.0 0.0 0.00 8.69 0.00 84
20190818051402 67 270 0.0 0.0 0.00 8.69 0.00 84
20190818051202 67 248 0.0 0.0 0.00 8.69 0.00 84
20190818051102 67 203 0.0 0.0 0.00 8.69 0.00 84
20190818050902 67 248 0.0 0.0 0.00 8.69 0.00 84
20190818050802 67 248 0.0 0.0 0.00 8.69 0.00 84
20190818050602 67 248 0.0 0.0 0.00 8.69 0.00 84
20190818050503 67 270 0.0 0.0 0.00 8.69 0.00 84
20190818050302 67 248 0.0 0.0 0.00 8.69 0.00 84
20190818050202 67 270 0.0 0.0 0.00 8.69 0.00 84
20190818050002 67 248 0.0 0.0 0.00 8.69 0.00 84
20190818045902 67 248 0.0 3.0 0.00 8.69 0.00 84
20190818045702 67 270 1.0 4.0 0.00 8.69 0.00 84
20190818045603 67 270 1.0 4.0 0.00 8.69 0.00 84
20190818045402 67 270 1.0 4.0 0.00 8.69 0.00 84
20190818045302 67 270 1.0 4.0 0.00 8.69 0.00 84
20190818045102 67 225 1.0 4.0 0.00 8.69 0.00 84
20190818045003 67 248 0.0 4.0 0.00 8.69 0.00 84
20190818044802 67 293 0.0 0.0 0.00 8.69 0.00 84
20190818044702 67 270 0.0 0.0 0.00 8.69 0.00 84
20190818044502 67 293 0.0 2.0 0.00 8.69 0.00 84
20190818044402 67 270 0.0 2.0 0.00 8.69 0.00 84
20190818044203 67 158 0.0 2.0 0.00 8.69 0.00 84
20190818044102 67 90 0.0 2.0 0.00 8.69 0.00 84
20190818043902 67 90 0.0 2.0 0.00 8.69 0.00 84
20190818043802 67 68 0.0 2.0 0.00 8.69 0.00 83
20190818043604 68 23 0.0 0.0 0.00 8.69 0.00 83
20190818043502 68 23 0.0 0.0 0.00 8.69 0.00 83
20190818043302 68 270 0.0 0.0 0.00 8.69 0.00 83
20190818043202 68 270 0.0 0.0 0.00 8.69 0.00 83
20190818043003 68 270 0.0 0.0 0.00 8.69 0.00 82
20190818042902 68 270 0.0 0.0 0.00 8.69 0.00 82
20190818042702 68 315 0.0 0.0 0.00 8.69 0.00 82
20190818042602 68 293 0.0 0.0 0.00 8.69 0.00 82
20190818042402 68 0 0.0 0.0 0.00 8.69 0.00 82
20190818042302 68 0 0.0 0.0 0.00 8.69 0.00 81
20190818042102 68 270 0.0 0.0 0.00 8.69 0.00 81
20190818042002 68 270 0.0 0.0 0.00 8.69 0.00 81
20190818041802 68 315 0.0 0.0 0.00 8.69 0.00 81
20190818041702 68 315 0.0 0.0 0.00 8.69 0.00 81
20190818041506 68 23 0.0 0.0 0.00 8.69 0.00 81
20190818041403 68 338 0.0 2.0 0.00 8.69 0.00 81
20190818041202 68 270 0.0 2.0 0.00 8.69 0.00 81
20190818041102 68 293 0.0 2.0 0.00 8.69 0.00 81
20190818040904 68 0 0.0 2.0 0.00 8.69 0.00 81
20190818040802 68 23 0.0 2.0 0.00 8.69 0.00 81
20190818040602 69 23 0.0 2.0 0.00 8.69 0.00 81
20190818040502 69 338 0.0 0.0 0.00 8.69 0.00 81
20190818040302 69 23 0.0 0.0 0.00 8.69 0.00 80
20190818040202 69 0 0.0 0.0 0.00 8.69 0.00 80
20190818040002 69 293 0.0 0.0 0.00 8.69 0.00 79
20190818035902 69 293 0.0 0.0 0.00 8.69 0.00 79
20190818035703 69 293 0.0 0.0 0.00 8.69 0.00 79
20190818035602 69 293 0.0 0.0 0.00 8.69 0.00 79
20190818035402 69 293 0.0 0.0 0.00 8.69 0.00 79
20190818035305 69 270 0.0 0.0 0.00 8.69 0.00 79
20190818035102 69 270 0.0 0.0 0.00 8.69 0.00 79
20190818035002 69 270 0.0 0.0 0.00 8.69 0.00 79
20190818034802 69 270 0.0 0.0 0.00 8.69 0.00 79
20190818034702 69 270 0.0 0.0 0.00 8.69 0.00 79
20190818034502 69 270 0.0 0.0 0.00 8.69 0.00 79
20190818034402 69 270 0.0 0.0 0.00 8.69 0.00 79
20190818034203 69 270 0.0 0.0 0.00 8.69 0.00 79
20190818034102 69 270 0.0 0.0 0.00 8.69 0.00 79
20190818033902 69 248 0.0 3.0 0.00 8.69 0.00 79
20190818033802 69 270 0.0 3.0 0.00 8.69 0.00 79
20190818033602 69 270 1.0 4.0 0.00 8.69 0.00 79
20190818033502 69 225 1.0 4.0 0.00 8.69 0.00 79
20190818033302 69 180 2.0 4.0 0.00 8.69 0.00 79
20190818033202 69 248 2.0 4.0 0.00 8.69 0.00 79
20190818033003 69 180 2.0 4.0 0.00 8.69 0.00 78
20190818032902 69 203 2.0 4.0 0.00 8.69 0.00 78
20190818032702 69 203 3.0 9.0 0.00 8.69 0.00 78
20190818032602 69 248 4.0 9.0 0.00 8.69 0.00 78
20190818032402 69 180 5.0 9.0 0.00 8.69 0.00 78
20190818032302 69 180 5.0 9.0 0.00 8.69 0.00 78
20190818032102 69 180 5.0 9.0 0.00 8.69 0.00 78
20190818032002 69 203 4.0 9.0 0.00 8.69 0.00 78
20190818031802 69 158 3.0 8.0 0.00 8.69 0.00 78
20190818031702 69 203 2.0 5.0 0.00 8.69 0.00 78
20190818031502 69 225 3.0 5.0 0.00 8.69 0.00 78
20190818031402 69 225 3.0 5.0 0.00 8.69 0.00 78
20190818031202 70 203 2.0 5.0 0.00 8.69 0.00 78
20190818031102 70 180 2.0 5.0 0.00 8.69 0.00 78
20190818030902 70 158 1.0 4.0 0.00 8.69 0.00 78
20190818030802 70 180 1.0 4.0 0.00 8.69 0.00 78
20190818030602 69 203 0.0 0.0 0.00 8.69 0.00 79
20190818030502 69 203 0.0 0.0 0.00 8.69 0.00 79
20190818030302 69 225 0.0 0.0 0.00 8.69 0.00 79
20190818030202 69 225 0.0 0.0 0.00 8.69 0.00 79
20190818030002 69 225 0.0 0.0 0.00 8.69 0.00 78
20190818025903 69 225 0.0 0.0 0.00 8.69 0.00 78
20190818025702 69 248 0.0 0.0 0.00 8.69 0.00 78
20190818025602 69 248 0.0 0.0 0.00 8.69 0.00 78
20190818025402 69 270 0.0 0.0 0.00 8.69 0.00 78
20190818025303 69 225 0.0 0.0 0.00 8.69 0.00 78
20190818025102 69 270 0.0 0.0 0.00 8.69 0.00 78
20190818025002 69 270 0.0 0.0 0.00 8.69 0.00 78
20190818024802 69 270 0.0 0.0 0.00 8.69 0.00 78
20190818024702 69 270 0.0 0.0 0.00 8.69 0.00 78
20190818024502 69 270 0.0 0.0 0.00 8.69 0.00 78
20190818024402 69 270 0.0 0.0 0.00 8.69 0.00 78
20190818024202 69 270 0.0 0.0 0.00 8.69 0.00 78
20190818024102 69 270 0.0 0.0 0.00 8.69 0.00 78
20190818023902 69 248 0.0 2.0 0.00 8.69 0.00 78
20190818023802 69 270 0.0 2.0 0.00 8.69 0.00 78
20190818023602 69 270 0.0 2.0 0.00 8.69 0.00 78
20190818023502 69 225 0.0 2.0 0.00 8.69 0.00 78
20190818023302 69 270 0.0 2.0 0.00 8.69 0.00 78
20190818023203 69 270 0.0 0.0 0.00 8.69 0.00 78
20190818023002 69 270 0.0 3.0 0.00 8.69 0.00 78
20190818022902 69 270 0.0 3.0 0.00 8.69 0.00 78
20190818022702 69 248 1.0 3.0 0.00 8.69 0.00 78
20190818022602 69 225 1.0 3.0 0.00 8.69 0.00 78
20190818022402 69 248 1.0 3.0 0.00 8.69 0.00 78
20190818022302 69 203 1.0 3.0 0.00 8.69 0.00 78
20190818022102 69 203 1.0 3.0 0.00 8.69 0.00 79
20190818022002 69 203 1.0 3.0 0.00 8.69 0.00 79
20190818021802 69 248 1.0 3.0 0.00 8.69 0.00 79
20190818021702 69 248 1.0 3.0 0.00 8.69 0.00 79
20190818021502 69 248 1.0 3.0 0.00 8.69 0.00 79
20190818021402 69 248 1.0 3.0 0.00 8.69 0.00 79
20190818021202 69 248 1.0 3.0 0.00 8.69 0.00 79
20190818021102 69 248 1.0 3.0 0.00 8.69 0.00 79
20190818020902 69 248 0.0 3.0 0.00 8.69 0.00 79
20190818020802 69 248 0.0 3.0 0.00 8.69 0.00 79
20190818020603 69 248 0.0 2.0 0.00 8.69 0.00 79
20190818020502 69 248 0.0 0.0 0.00 8.69 0.00 79
20190818020302 69 225 0.0 0.0 0.00 8.69 0.00 78
20190818020202 69 248 0.0 0.0 0.00 8.69 0.00 78
20190818020002 69 270 0.0 3.0 0.00 8.69 0.00 77
20190818015902 69 270 0.0 3.0 0.00 8.69 0.00 77
20190818015702 69 248 0.0 3.0 0.00 8.69 0.00 77
20190818015602 69 225 0.0 3.0 0.00 8.69 0.00 77
20190818015402 69 248 0.0 3.0 0.00 8.69 0.00 77
20190818015302 69 225 0.0 3.0 0.00 8.69 0.00 77
20190818015102 69 225 0.0 0.0 0.00 8.69 0.00 77
20190818015003 69 225 0.0 0.0 0.00 8.69 0.00 77
20190818014802 69 270 0.0 0.0 0.00 8.69 0.00 77
20190818014702 69 270 0.0 0.0 0.00 8.69 0.00 77
20190818014504 69 270 0.0 0.0 0.00 8.69 0.00 77
20190818014402 70 270 0.0 0.0 0.00 8.69 0.00 77
20190818014202 70 270 0.0 0.0 0.00 8.69 0.00 77
20190818014102 70 270 0.0 0.0 0.00 8.69 0.00 76
20190818013902 70 248 0.0 0.0 0.00 8.69 0.00 76
20190818013802 70 248 0.0 0.0 0.00 8.69 0.00 76
20190818013602 70 270 0.0 0.0 0.00 8.69 0.00 76
20190818013502 70 270 0.0 0.0 0.00 8.69 0.00 76
20190818013303 70 248 0.0 0.0 0.00 8.69 0.00 75
20190818013203 70 270 0.0 0.0 0.00 8.69 0.00 74
20190818013002 70 270 0.0 0.0 0.00 8.69 0.00 74
20190818012902 70 270 0.0 0.0 0.00 8.69 0.00 74
20190818012702 70 270 0.0 0.0 0.00 8.69 0.00 74
20190818012602 70 270 0.0 0.0 0.00 8.69 0.00 74
20190818012402 71 270 0.0 0.0 0.00 8.69 0.00 74
20190818012304 71 270 0.0 0.0 0.00 8.69 0.00 74
20190818012102 71 270 0.0 0.0 0.00 8.69 0.00 73
20190818012003 71 270 0.0 0.0 0.00 8.69 0.00 73
20190818011803 71 270 0.0 0.0 0.00 8.69 0.00 73
20190818011702 71 270 0.0 0.0 0.00 8.69 0.00 72
20190818011502 71 270 0.0 0.0 0.00 8.69 0.00 72
20190818011402 71 270 0.0 0.0 0.00 8.69 0.00 72
20190818011203 71 270 0.0 0.0 0.00 8.69 0.00 71
20190818011102 72 270 0.0 0.0 0.00 8.69 0.00 71
20190818010902 72 270 0.0 0.0 0.00 8.69 0.00 71
20190818010802 72 270 0.0 0.0 0.00 8.69 0.00 71
20190818010602 72 248 0.0 0.0 0.00 8.69 0.00 71
20190818010502 72 248 0.0 0.0 0.00 8.69 0.00 71
20190818010302 72 225 0.0 2.0 0.00 8.69 0.00 71
20190818010202 72 248 0.0 2.0 0.00 8.69 0.00 70
20190818010002 72 270 0.0 2.0 0.00 8.69 0.00 70
20190818005902 72 270 0.0 2.0 0.00 8.69 0.00 70
20190818005702 72 270 0.0 2.0 0.00 8.69 0.00 70
20190818005602 72 270 0.0 2.0 0.00 8.69 0.00 70
20190818005402 73 270 1.0 4.0 0.00 8.69 0.00 70
20190818005302 73 270 1.0 5.0 0.00 8.69 0.00 70
20190818005103 73 270 2.0 6.0 0.00 8.69 0.00 69
20190818005002 73 270 2.0 6.0 0.00 8.69 0.00 69
20190818004802 73 338 2.0 6.0 0.00 8.69 0.00 69
20190818004702 73 270 2.0 6.0 0.00 8.69 0.00 69
20190818004502 73 293 1.0 6.0 0.00 8.69 0.00 69
20190818004402 73 270 1.0 4.0 0.00 8.69 0.00 69
20190818004202 73 270 0.0 0.0 0.00 8.69 0.00 68
20190818004103 73 270 0.0 4.0 0.00 8.69 0.00 68
20190818003902 73 293 1.0 4.0 0.00 8.69 0.00 68
20190818003802 73 293 1.0 4.0 0.00 8.69 0.00 68
20190818003602 74 293 1.0 4.0 0.00 8.69 0.00 68
20190818003502 74 293 2.0 4.0 0.00 8.69 0.00 67
20190818003302 74 315 2.0 4.0 0.00 8.69 0.00 67
20190818003202 74 315 2.0 4.0 0.00 8.69 0.00 67
20190818003004 74 293 3.0 4.0 0.00 8.69 0.00 67
20190818002903 74 315 3.0 5.0 0.00 8.69 0.00 66
20190818002702 74 293 3.0 5.0 0.00 8.69 0.00 66
20190818002602 74 315 3.0 5.0 0.00 8.69 0.00 66
20190818002402 75 293 3.0 5.0 0.00 8.69 0.00 66
20190818002302 75 315 3.0 5.0 0.00 8.69 0.00 65
20190818002102 75 293 3.0 4.0 0.00 8.69 0.00 65
20190818002002 75 315 3.0 5.0 0.00 8.69 0.00 65
20190818001803 75 315 4.0 5.0 0.00 8.69 0.00 65
20190818001702 75 338 4.0 5.0 0.00 8.69 0.00 64
20190818001502 75 315 4.0 5.0 0.00 8.69 0.00 64
20190818001402 75 315 4.0 5.0 0.00 8.69 0.00 64
20190818001202 76 293 4.0 5.0 0.00 8.69 0.00 63
20190818001102 76 315 4.0 5.0 0.00 8.69 0.00 63
20190818000902 76 293 4.0 6.0 0.00 8.69 0.00 63
20190818000802 76 293 4.0 6.0 0.00 8.69 0.00 63
20190818000602 77 293 4.0 6.0 0.00 8.69 0.00 62
20190818000502 77 315 3.0 6.0 0.00 8.69 0.00 61
20190818000302 77 293 3.0 6.0 0.00 8.69 0.00 61
20190818000202 77 293 4.0 6.0 0.00 8.69 0.00 61
20190817235902 78 293 4.0 8.0 0.00 8.69 0.00 60
20190817235704 78 270 4.0 8.0 0.00 8.69 0.00 60
20190817235602 78 293 5.0 9.0 0.00 8.69 0.00 60
20190817235402 78 270 4.0 9.0 0.00 8.69 0.00 60
20190817235302 78 338 4.0 9.0 0.00 8.69 0.00 60
20190817235102 78 315 6.0 13.0 0.00 8.69 0.00 60
20190817235002 78 293 6.0 13.0 0.00 8.69 0.00 59
20190817234803 79 270 5.0 13.0 0.00 8.69 0.00 59
20190817234702 78 293 5.0 13.0 0.00 8.69 0.00 59
20190817234502 79 270 5.0 13.0 0.00 8.69 0.00 59
20190817234403 79 315 5.0 11.0 0.00 8.69 0.00 59
20190817234202 79 293 4.0 9.0 0.00 8.69 0.00 59
20190817234102 79 293 5.0 9.0 0.00 8.69 0.00 59
20190817233902 79 270 5.0 9.0 0.00 8.69 0.00 59
20190817233802 79 270 5.0 9.0 0.00 8.69 0.00 59
20190817233603 79 0 5.0 9.0 0.00 8.69 0.00 59
20190817233502 79 338 5.0 9.0 0.00 8.69 0.00 59
20190817233302 79 293 4.0 8.0 0.00 8.69 0.00 59
20190817233203 79 248 5.0 8.0 0.00 8.69 0.00 59
20190817233002 79 270 5.0 8.0 0.00 8.69 0.00 59
20190817232902 79 270 5.0 9.0 0.00 8.69 0.00 59
20190817232702 79 293 6.0 9.0 0.00 8.69 0.00 59
20190817232602 79 293 6.0 9.0 0.00 8.69 0.00 59
20190817232402 79 225 6.0 9.0 0.00 8.69 0.00 59
20190817232302 79 293 6.0 9.0 0.00 8.69 0.00 59
20190817232102 79 315 6.0 9.0 0.00 8.69 0.00 59
20190817232002 80 315 6.0 10.0 0.00 8.69 0.00 59
20190817231802 80 0 6.0 10.0 0.00 8.69 0.00 59
20190817231702 79 315 6.0 10.0 0.00 8.69 0.00 59
20190817231502 79 225 7.0 12.0 0.00 8.69 0.00 59
20190817231405 79 23 8.0 12.0 0.00 8.69 0.00 59
20190817231202 79 270 8.0 12.0 0.00 8.69 0.00 58
20190817231102 79 270 8.0 12.0 0.00 8.69 0.00 58
20190817230902 79 270 8.0 12.0 0.00 8.69 0.00 58
20190817230803 79 293 8.0 12.0 0.00 8.69 0.00 58
20190817230602 79 338 7.0 12.0 0.00 8.69 0.00 58
20190817230502 79 315 7.0 12.0 0.00 8.69 0.00 58
20190817230303 79 270 7.0 11.0 0.00 8.69 0.00 57
20190817230202 79 0 6.0 11.0 0.00 8.69 0.00 57
20190817230002 80 270 6.0 10.0 0.00 8.69 0.00 57
20190817225902 80 270 6.0 12.0 0.00 8.69 0.00 57
20190817225702 80 270 6.0 13.0 0.00 8.69 0.00 56
20190817225602 80 315 7.0 13.0 0.00 8.69 0.00 56
20190817225402 79 248 8.0 16.0 0.00 8.69 0.00 56
20190817225302 79 248 9.0 18.0 0.00 8.69 0.00 56
20190817225102 79 270 10.0 18.0 0.00 8.69 0.00 56
20190817225002 79 248 10.0 18.0 0.00 8.69 0.00 56
20190817224802 79 270 11.0 18.0 0.00 8.69 0.00 56
20190817224703 79 225 11.0 18.0 0.00 8.69 0.00 56
20190817224502 79 225 11.0 17.0 0.00 8.69 0.00 56
20190817224403 79 248 11.0 17.0 0.00 8.69 0.00 56
20190817224203 79 203 9.0 15.0 0.00 8.69 0.00 56
20190817224102 80 293 9.0 15.0 0.00 8.69 0.00 56
20190817223902 80 293 8.0 14.0 0.00 8.69 0.00 56
20190817223802 80 293 8.0 14.0 0.00 8.69 0.00 56
20190817223602 80 225 9.0 14.0 0.00 8.69 0.00 56
20190817223502 80 270 9.0 14.0 0.00 8.69 0.00 56
20190817223302 80 225 10.0 17.0 0.00 8.69 0.00 57
20190817223202 80 293 10.0 17.0 0.00 8.69 0.00 57
20190817223002 80 270 9.0 17.0 0.00 8.69 0.00 56
20190817222902 80 270 9.0 17.0 0.00 8.69 0.00 56
20190817222702 80 225 9.0 17.0 0.00 8.69 0.00 56
20190817222602 80 270 10.0 18.0 0.00 8.69 0.00 56
20190817222402 80 338 10.0 18.0 0.00 8.69 0.00 56
20190817222302 80 225 9.0 18.0 0.00 8.69 0.00 56
20190817222102 80 270 10.0 18.0 0.00 8.69 0.00 56
20190817222002 80 270 10.0 18.0 0.00 8.69 0.00 56
20190817221802 80 270 10.0 18.0 0.00 8.69 0.00 56
20190817221702 80 270 10.0 16.0 0.00 8.69 0.00 56
20190817221502 80 270 10.0 16.0 0.00 8.69 0.00 56
20190817221403 80 270 10.0 14.0 0.00 8.69 0.00 56
20190817221202 81 338 10.0 16.0 0.00 8.69 0.00 56
20190817221104 81 248 9.0 16.0 0.00 8.69 0.00 56
20190817220902 80 270 9.0 16.0 0.00 8.69 0.00 56
20190817220802 80 315 9.0 16.0 0.00 8.69 0.00 56
20190817220602 80 270 9.0 16.0 0.00 8.69 0.00 56
20190817220502 80 203 9.0 15.0 0.00 8.69 0.00 56
20190817220303 80 293 12.0 23.0 0.00 8.69 0.00 57
20190817220202 80 248 12.0 23.0 0.00 8.69 0.00 57
20190817220003 80 248 13.0 23.0 0.00 8.69 0.00 57
20190817215902 80 293 14.0 23.0 0.00 8.69 0.00 57
20190817215702 80 270 13.0 23.0 0.00 8.69 0.00 57
20190817215602 80 293 13.0 23.0 0.00 8.69 0.00 57
20190817215402 80 270 12.0 18.0 0.00 8.69 0.00 57
20190817215302 80 270 12.0 18.0 0.00 8.69 0.00 57
20190817215102 80 225 11.0 15.0 0.00 8.69 0.00 57
20190817215002 80 225 11.0 15.0 0.00 8.69 0.00 57
20190817214802 79 225 12.0 18.0 0.00 8.69 0.00 58
20190817214702 79 225 12.0 18.0 0.00 8.69 0.00 58
20190817214502 79 225 12.0 18.0 0.00 8.69 0.00 58
20190817214402 79 270 12.0 18.0 0.00 8.69 0.00 58
20190817214202 79 293 12.0 18.0 0.00 8.69 0.00 58
20190817214102 79 270 12.0 18.0 0.00 8.69 0.00 58
20190817213902 79 248 12.0 18.0 0.00 8.69 0.00 58
20190817213803 79 248 12.0 15.0 0.00 8.69 0.00 58
20190817213602 80 270 12.0 18.0 0.00 8.69 0.00 58
20190817213502 79 203 12.0 18.0 0.00 8.69 0.00 58
20190817213302 80 248 13.0 18.0 0.00 8.69 0.00 58
20190817213202 80 203 12.0 18.0 0.00 8.69 0.00 59
20190817213002 79 270 10.0 18.0 0.00 8.69 0.00 59
20190817212902 79 270 11.0 18.0 0.00 8.69 0.00 59
20190817212702 79 270 12.0 18.0 0.00 8.69 0.00 59
20190817212602 79 270 11.0 18.0 0.00 8.69 0.00 59
20190817212402 79 225 12.0 18.0 0.00 8.69 0.00 59
20190817212302 79 270 12.0 18.0 0.00 8.69 0.00 59
20190817212102 79 248 12.0 18.0 0.00 8.69 0.00 59
20190817212004 79 270 11.0 18.0 0.00 8.69 0.00 59
20190817211802 80 270 10.0 18.0 0.00 8.69 0.00 58
20190817211702 80 248 11.0 18.0 0.00 8.69 0.00 58
20190817211503 80 270 11.0 18.0 0.00 8.69 0.00 58
20190817211402 80 270 11.0 18.0 0.00 8.69 0.00 59
20190817211203 80 293 12.0 18.0 0.00 8.69 0.00 59
20190817211102 80 248 13.0 18.0 0.00 8.69 0.00 59
20190817210902 80 270 13.0 18.0 0.00 8.69 0.00 58
20190817210802 79 270 13.0 18.0 0.00 8.69 0.00 58
20190817210602 80 225 13.0 19.0 0.00 8.69 0.00 58
20190817210503 80 270 13.0 19.0 0.00 8.69 0.00 58
20190817210302 79 225 13.0 19.0 0.00 8.69 0.00 58
20190817210202 79 225 13.0 19.0 0.00 8.69 0.00 58
20190817210002 80 270 13.0 19.0 0.00 8.69 0.00 58
20190817205902 80 270 13.0 19.0 0.00 8.69 0.00 58
20190817205703 79 180 12.0 17.0 0.00 8.69 0.00 58
20190817205603 79 203 13.0 20.0 0.00 8.69 0.00 58
20190817205402 79 270 13.0 20.0 0.00 8.69 0.00 58
20190817205304 80 270 12.0 20.0 0.00 8.69 0.00 58
20190817205102 80 270 12.0 20.0 0.00 8.69 0.00 59
20190817205002 80 270 13.0 20.0 0.00 8.69 0.00 59
20190817204803 79 270 13.0 19.0 0.00 8.69 0.00 59
20190817204702 79 315 13.0 18.0 0.00 8.69 0.00 60
20190817204502 79 293 14.0 18.0 0.00 8.69 0.00 59
20190817204402 79 248 13.0 18.0 0.00 8.69 0.00 59
20190817204204 79 270 13.0 18.0 0.00 8.69 0.00 58
20190817204102 79 270 13.0 18.0 0.00 8.69 0.00 58
20190817203902 80 180 13.0 23.0 0.00 8.69 0.00 58
20190817203804 80 270 13.0 23.0 0.00 8.69 0.00 58
20190817203602 80 248 13.0 23.0 0.00 8.69 0.00 58
20190817203502 80 248 13.0 23.0 0.00 8.69 0.00 58
20190817203302 79 270 14.0 23.0 0.00 8.69 0.00 58
20190817203202 80 248 13.0 19.0 0.00 8.69 0.00 58
20190817203002 80 270 14.0 21.0 0.00 8.69 0.00 58
20190817202902 79 248 15.0 21.0 0.00 8.69 0.00 58
20190817202702 79 270 14.0 21.0 0.00 8.69 0.00 58
20190817202602 79 270 14.0 21.0 0.00 8.69 0.00 58
20190817202403 79 248 14.0 21.0 0.00 8.69 0.00 58
20190817202302 80 225 14.0 21.0 0.00 8.69 0.00 58
20190817202102 79 270 13.0 19.0 0.00 8.69 0.00 58
20190817202002 79 270 13.0 19.0 0.00 8.69 0.00 58
20190817201802 79 248 13.0 19.0 0.00 8.69 0.00 57
20190817201702 79 270 14.0 21.0 0.00 8.69 0.00 57
20190817201502 79 225 15.0 21.0 0.00 8.69 0.00 57
20190817201402 79 270 14.0 21.0 0.00 8.69 0.00 57
20190817201202 79 270 14.0 21.0 0.00 8.69 0.00 57
20190817201102 79 270 14.0 21.0 0.00 8.69 0.00 57
20190817200902 79 270 13.0 21.0 0.00 8.69 0.00 57
20190817200802 80 248 12.0 20.0 0.00 8.69 0.00 57
20190817200602 80 248 13.0 20.0 0.00 8.69 0.00 58
20190817200502 80 248 13.0 20.0 0.00 8.69 0.00 58
20190817200302 79 270 14.0 20.0 0.00 8.69 0.00 58
20190817200202 80 248 14.0 20.0 0.00 8.69 0.00 58
20190817200002 80 270 15.0 22.0 0.00 8.69 0.00 57
20190817195903 80 270 15.0 22.0 0.00 8.69 0.00 57
20190817195702 80 225 15.0 27.0 0.00 8.69 0.00 56
20190817195602 80 225 15.0 27.0 0.00 8.69 0.00 56
20190817195403 80 338 15.0 27.0 0.00 8.69 0.00 56
20190817195302 80 225 15.0 27.0 0.00 8.69 0.00 56
20190817195102 80 270 15.0 27.0 0.00 8.69 0.00 56
20190817195003 80 225 16.0 27.0 0.00 8.69 0.00 55
20190817194803 80 270 14.0 19.0 0.00 8.69 0.00 56
20190817194702 80 293 14.0 25.0 0.00 8.69 0.00 55
20190817194502 80 248 15.0 25.0 0.00 8.69 0.00 55
20190817194402 80 248 14.0 25.0 0.00 8.69 0.00 55
20190817194202 81 248 13.0 25.0 0.00 8.69 0.00 55
20190817194102 81 270 13.0 25.0 0.00 8.69 0.00 55
20190817193902 81 180 12.0 20.0 0.00 8.69 0.00 56
20190817193802 81 270 12.0 20.0 0.00 8.69 0.00 56
20190817193603 80 248 11.0 20.0 0.00 8.69 0.00 56
20190817193502 80 315 11.0 17.0 0.00 8.69 0.00 56
20190817193302 80 270 11.0 18.0 0.00 8.69 0.00 57
20190817193202 80 315 11.0 18.0 0.00 8.69 0.00 57
20190817193002 79 293 11.0 18.0 0.00 8.69 0.00 58
20190817192902 80 248 12.0 18.0 0.00 8.69 0.00 58
20190817192702 80 203 13.0 18.0 0.00 8.69 0.00 58
20190817192603 80 270 13.0 18.0 0.00 8.69 0.00 58
20190817192402 80 293 12.0 18.0 0.00 8.69 0.00 58
20190817192302 80 225 13.0 18.0 0.00 8.69 0.00 58
20190817192102 80 270 13.0 18.0 0.00 8.69 0.00 57
20190817192003 80 248 13.0 18.0 0.00 8.69 0.00 57
20190817191802 80 248 13.0 18.0 0.00 8.69 0.00 56
20190817191702 81 270 13.0 18.0 0.00 8.69 0.00 56
20190817191502 81 293 13.0 18.0 0.00 8.69 0.00 56
20190817191403 81 315 13.0 18.0 0.00 8.69 0.00 56
20190817191202 81 270 13.0 18.0 0.00 8.69 0.00 56
20190817191102 81 248 13.0 18.0 0.00 8.69 0.00 56
20190817190902 81 315 12.0 17.0 0.00 8.69 0.00 56
20190817190802 81 270 12.0 17.0 0.00 8.69 0.00 56
20190817190602 81 248 11.0 17.0 0.00 8.69 0.00 56
20190817190502 81 270 12.0 19.0 0.00 8.69 0.00 56
20190817190302 81 270 13.0 24.0 0.00 8.69 0.00 56
20190817190202 81 225 13.0 24.0 0.00 8.69 0.00 56
20190817190002 81 315 14.0 24.0 0.00 8.69 0.00 57
20190817185902 81 315 15.0 24.0 0.00 8.69 0.00 57
20190817185702 82 293 16.0 24.0 0.00 8.69 0.00 56
20190817185602 82 293 16.0 24.0 0.00 8.69 0.00 56
20190817185403 82 225 15.0 25.0 0.00 8.69 0.00 56
20190817185302 82 270 15.0 25.0 0.00 8.69 0.00 56
20190817185102 82 270 15.0 25.0 0.00 8.69 0.00 56
20190817185002 82 293 16.0 25.0 0.00 8.69 0.00 56
20190817184802 82 248 15.0 25.0 0.00 8.69 0.00 56
20190817184702 82 225 15.0 25.0 0.00 8.69 0.00 56
20190817184503 82 225 14.0 22.0 0.00 8.69 0.00 55
20190817184402 82 270 14.0 22.0 0.00 8.69 0.00 55
20190817184202 82 270 13.0 19.0 0.00 8.69 0.00 55
20190817184102 82 270 14.0 19.0 0.00 8.69 0.00 55
20190817183903 82 248 13.0 18.0 0.00 8.69 0.00 57
20190817183802 82 225 12.0 18.0 0.00 8.69 0.00 56
20190817183602 82 270 13.0 18.0 0.00 8.69 0.00 56
20190817183502 82 315 12.0 18.0 0.00 8.69 0.00 56
20190817183302 81 248 11.0 16.0 0.00 8.69 0.00 56
20190817183203 81 270 10.0 19.0 0.00 8.69 0.00 56
20190817183002 81 270 12.0 23.0 0.00 8.69 0.00 57
20190817182902 81 225 12.0 23.0 0.00 8.69 0.00 57
20190817182702 81 225 12.0 23.0 0.00 8.69 0.00 56
20190817182602 82 248 12.0 23.0 0.00 8.69 0.00 56
20190817182403 82 248 12.0 23.0 0.00 8.69 0.00 55
20190817182304 82 270 11.0 18.0 0.00 8.69 0.00 55
20190817182102 82 248 11.0 21.0 0.00 8.69 0.00 55
20190817182002 82 203 11.0 21.0 0.00 8.69 0.00 55
20190817181803 82 225 12.0 21.0 0.00 8.69 0.00 56
20190817181702 82 270 12.0 22.0 0.00 8.69 0.00 56
20190817181502 81 225 14.0 23.0 0.00 8.69 0.00 56
20190817181402 81 270 14.0 23.0 0.00 8.69 0.00 55
20190817181202 82 225 16.0 28.0 0.00 8.69 0.00 56
20190817181102 82 270 16.0 28.0 0.00 8.69 0.00 57
20190817180902 81 248 16.0 28.0 0.00 8.69 0.00 57
20190817180802 81 248 15.0 28.0 0.00 8.69 0.00 57
20190817180602 81 203 15.0 28.0 0.00 8.69 0.00 57
20190817180502 81 270 13.0 18.0 0.00 8.69 0.00 58
20190817180302 81 270 13.0 18.0 0.00 8.69 0.00 58
20190817180202 81 293 13.0 18.0 0.00 8.69 0.00 59
20190817180003 81 203 13.0 19.0 0.00 8.69 0.00 59
20190817175902 81 248 13.0 19.0 0.00 8.69 0.00 59
20190817175702 81 225 13.0 19.0 0.00 8.69 0.00 59
20190817175602 81 270 13.0 19.0 0.00 8.69 0.00 59
20190817175403 81 270 12.0 19.0 0.00 8.69 0.00 59
20190817175302 80 270 12.0 19.0 0.00 8.69 0.00 61
20190817175102 81 248 13.0 19.0 0.00 8.69 0.00 59
20190817175003 81 270 12.0 20.0 0.00 8.69 0.00 60
20190817174802 81 270 13.0 20.0 0.00 8.69 0.00 61
20190817174702 81 270 13.0 20.0 0.00 8.69 0.00 61
20190817174502 81 270 13.0 20.0 0.00 8.69 0.00 62
20190817174402 80 270 13.0 20.0 0.00 8.69 0.00 63
20190817174203 80 270 13.0 20.0 0.00 8.69 0.00 63
20190817174103 80 225 13.0 20.0 0.00 8.69 0.00 63
20190817173902 80 248 13.0 20.0 0.00 8.69 0.00 63
20190817173802 79 203 14.0 21.0 0.00 8.69 0.00 63
20190817173602 79 270 13.0 21.0 0.00 8.69 0.00 63
20190817173502 79 225 13.0 21.0 0.00 8.69 0.00 64
20190817173302 78 248 13.0 21.0 0.00 8.69 0.00 63
20190817173202 79 225 13.0 21.0 0.00 8.69 0.00 63
20190817173002 79 248 12.0 20.0 0.00 8.69 0.00 63
20190817172902 79 225 11.0 20.0 0.00 8.69 0.00 63
20190817172702 80 180 11.0 20.0 0.00 8.69 0.00 62
20190817172602 80 270 11.0 20.0 0.00 8.69 0.00 62
20190817172403 80 270 10.0 16.0 0.00 8.69 0.00 62
20190817172302 80 270 10.0 16.0 0.00 8.69 0.00 62
20190817172102 80 270 10.0 16.0 0.00 8.69 0.00 62
20190817172002 80 248 10.0 16.0 0.00 8.69 0.00 61
20190817171802 81 270 11.0 19.0 0.00 8.69 0.00 61
20190817171702 82 270 10.0 19.0 0.00 8.69 0.00 60
20190817171502 81 270 11.0 19.0 0.00 8.69 0.00 59
20190817171402 82 225 12.0 19.0 0.00 8.69 0.00 59
20190817171202 82 248 12.0 20.0 0.00 8.69 0.00 58
20190817171102 82 248 12.0 20.0 0.00 8.69 0.00 58
20190817170902 82 225 13.0 21.0 0.00 8.69 0.00 57
20190817170803 82 248 12.0 21.0 0.00 8.69 0.00 57
20190817170602 81 225 13.0 21.0 0.00 8.69 0.00 58
20190817170503 82 203 13.0 21.0 0.00 8.69 0.00 60
20190817170302 81 270 13.0 21.0 0.00 8.69 0.00 62
20190817170202 81 270 13.0 21.0 0.00 8.69 0.00 62
20190817170002 81 315 13.0 21.0 0.00 8.69 0.00 61
20190817165902 81 270 13.0 21.0 0.00 8.69 0.00 60
20190817165703 81 270 13.0 20.0 0.00 8.69 0.00 59
20190817165602 80 270 13.0 20.0 0.00 8.69 0.00 60
20190817165402 80 180 13.0 20.0 0.00 8.69 0.00 62
20190817165302 80 248 13.0 18.0 0.00 8.69 0.00 62
20190817165102 80 248 14.0 22.0 0.00 8.69 0.00 62
20190817165002 80 203 14.0 22.0 0.00 8.69 0.00 62
20190817164802 80 270 14.0 22.0 0.00 8.69 0.00 61
20190817164702 80 293 13.0 22.0 0.00 8.69 0.00 61
20190817164502 80 270 12.0 22.0 0.00 8.69 0.00 63
20190817164402 80 180 12.0 23.0 0.00 8.69 0.00 64
20190817164202 79 270 13.0 23.0 0.00 8.69 0.00 65
20190817164102 79 270 12.0 23.0 0.00 8.69 0.00 66
20190817163902 80 338 13.0 23.0 0.00 8.69 0.00 63
20190817163802 80 270 15.0 23.0 0.00 8.69 0.00 63
20190817163603 80 270 14.0 23.0 0.00 8.69 0.00 63
20190817163502 80 225 13.0 23.0 0.00 8.69 0.00 64
20190817163302 80 270 14.0 23.0 0.00 8.69 0.00 66
20190817163202 80 225 15.0 23.0 0.00 8.69 0.00 65
20190817163002 79 203 15.0 23.0 0.00 8.69 0.00 69
20190817162902 79 203 15.0 23.0 0.00 8.69 0.00 69
20190817162702 79 270 14.0 19.0 0.00 8.69 0.00 69
20190817162602 79 225 14.0 19.0 0.00 8.69 0.00 68
20190817162402 79 248 14.0 19.0 0.00 8.69 0.00 68
20190817162302 80 270 13.0 19.0 0.00 8.69 0.00 68
20190817162103 80 293 11.0 17.0 0.00 8.69 0.00 69
20190817162002 80 225 11.0 18.0 0.00 8.69 0.00 69
20190817161802 79 338 10.0 18.0 0.00 8.69 0.00 71
20190817161702 79 270 10.0 18.0 0.00 8.69 0.00 71
20190817161504 77 180 10.0 18.0 0.00 8.69 0.00 72
20190817161402 77 180 10.0 18.0 0.00 8.69 0.00 72
20190817161202 78 248 11.0 18.0 0.00 8.69 0.00 72
20190817161102 78 270 11.0 18.0 0.00 8.69 0.00 72
20190817160902 78 248 11.0 14.0 0.00 8.69 0.00 72
20190817160802 78 225 10.0 14.0 0.00 8.69 0.00 72
20190817160602 78 225 11.0 14.0 0.00 8.69 0.00 71
20190817160505 78 203 11.0 14.0 0.00 8.69 0.00 71
20190817160302 78 270 11.0 15.0 0.00 8.69 0.00 71
20190817160202 78 248 10.0 15.0 0.00 8.69 0.00 72
20190817160002 78 248 10.0 17.0 0.00 8.69 0.00 72
20190817155902 77 293 10.0 17.0 0.00 8.69 0.00 72
20190817155702 77 225 10.0 17.0 0.00 8.69 0.00 74
20190817155602 77 270 10.0 18.0 0.00 8.69 0.00 74
20190817155402 78 248 10.0 18.0 0.00 8.69 0.00 74
20190817155303 78 225 11.0 18.0 0.00 8.69 0.00 74
20190817155102 78 248 11.0 18.0 0.00 8.69 0.00 73
20190817155002 78 180 11.0 18.0 0.00 8.69 0.00 73
20190817154802 78 203 11.0 18.0 0.00 8.69 0.00 73
20190817154702 78 225 11.0 15.0 0.00 8.69 0.00 74
20190817154502 77 203 12.0 17.0 0.00 8.69 0.00 74
20190817154403 77 225 12.0 17.0 0.00 8.69 0.00 74
20190817154205 77 225 12.0 20.0 0.00 8.69 0.00 74
20190817154102 77 248 12.0 20.0 0.00 8.69 0.00 75
20190817153902 77 270 12.0 20.0 0.00 8.69 0.00 75
20190817153802 77 248 12.0 20.0 0.00 8.69 0.00 75
20190817153603 76 225 12.0 20.0 0.00 8.69 0.00 76
20190817153502 76 180 12.0 18.0 0.00 8.69 0.00 78
20190817153302 76 225 13.0 18.0 0.00 8.69 0.00 79
20190817153202 76 248 13.0 18.0 0.00 8.69 0.00 79
20190817153002 76 225 13.0 18.0 0.00 8.69 0.00 79
20190817152902 75 225 14.0 18.0 0.00 8.69 0.00 79
20190817152702 76 203 14.0 18.0 0.00 8.69 0.00 78
20190817152602 76 248 13.0 18.0 0.00 8.69 0.00 77
20190817152402 77 180 11.0 18.0 0.00 8.69 0.00 77
20190817152302 77 225 10.0 18.0 0.00 8.69 0.00 76
20190817152104 78 248 8.0 16.0 0.00 8.69 0.00 77
20190817152003 77 248 8.0 14.0 0.00 8.69 0.00 77
20190817151802 77 270 8.0 14.0 0.00 8.69 0.00 77
20190817151702 77 270 8.0 14.0 0.00 8.69 0.00 77
20190817151505 76 270 8.0 14.0 0.00 8.69 0.00 79
20190817151402 76 270 8.0 14.0 0.00 8.69 0.00 79
20190817151202 76 248 8.0 13.0 0.00 8.69 0.00 80
20190817151102 75 203 8.0 13.0 0.00 8.69 0.00 81
20190817150902 75 270 9.0 13.0 0.00 8.69 0.00 81
20190817150802 75 270 9.0 13.0 0.00 8.69 0.00 81
20190817150604 75 248 9.0 15.0 0.00 8.69 0.00 80
20190817150503 75 225 9.0 15.0 0.00 8.69 0.00 80
20190817150303 75 225 11.0 15.0 0.00 8.69 0.00 80
20190817150202 75 180 11.0 15.0 0.00 8.69 0.00 80
20190817150003 75 225 11.0 15.0 0.00 8.69 0.00 81
20190817145905 75 248 8.0 11.0 0.00 8.69 0.00 81